HIMAWARI 8

Last updated on Sun Dec 11 2016 00:16:34 GMT+0000 (Coordinated Universal Time)

1 40267U 14060A 16345.38859158 -.00000273 00000-0 00000+0 0 9998 2 40267 0.0113 328.0530 0001049 284.5968 107.3388 1.00271308 8014
UTC large
Height (km)
Speed (km/s)
/
Latitude / Longitude
Inclination (degrees)
Orbital Period (minutes)
Azimuth
Elevation
Range (km)
Doppler Factor

Next 0 passes for location: London (51.5072 / 0.1276)

Sorry there are no passes over London.